This is the latest recevied weather packets stored in our database for station/object N8QF-1. If no packets are shown the sender has not sent any weather packets the latest 10 day(s).
| Time | Temp. | Humidity | Pressure | Rain* | Wind** | Luminosity | Snow |
|---|---|---|---|---|---|---|---|
| 1777725383 | 5° C | 62% | 1018.3 hPa | 0 mm | - | - | - |
| 1777725082 | 5° C | 64% | 1018.3 hPa | 0 mm | - | - | - |
| 1777724782 | 5° C | 65% | 1018.3 hPa | 0 mm | - | - | - |
| 1777724481 | 5° C | 65% | 1018.3 hPa | 0 mm | - | - | - |
| 1777724181 | 5° C | 67% | 1018.2 hPa | 0 mm | - | - | - |
| 1777723579 | 4.44° C | 67% | 1018.2 hPa | 0 mm | - | - | - |
| 1777722978 | 4.44° C | 72% | 1018 hPa | 0 mm | - | - | - |
| 1777722678 | 4.44° C | 75% | 1017.9 hPa | 0 mm | - | - | - |
| 1777722377 | 4.44° C | 78% | 1017.9 hPa | 0 mm | - | - | - |
| 1777722076 | 4.44° C | 78% | 1017.9 hPa | 0 mm | - | - | - |
| 1777721775 | 4.44° C | 78% | 1017.8 hPa | 0 mm | - | - | - |
| 1777721475 | 4.44° C | 77% | 1017.7 hPa | 0 mm | - | - | - |
| 1777721174 | 4.44° C | 77% | 1017.9 hPa | 0 mm | - | - | - |
| 1777720874 | 4.44° C | 77% | 1017.8 hPa | 0 mm | - | - | - |
| 1777720573 | 4.44° C | 77% | 1017.9 hPa | 0 mm | - | - | - |
| 1777720273 | 4.44° C | 77% | 1017.8 hPa | 0 mm | - | - | - |
| 1777719972 | 4.44° C | 77% | 1017.7 hPa | 0 mm | - | - | - |
| 1777719672 | 4.44° C | 77% | 1017.6 hPa | 0 mm | - | - | - |
| 1777719371 | 4.44° C | 76% | 1017.5 hPa | 0 mm | - | - | - |
| 1777719071 | 4.44° C | 76% | 1017.5 hPa | 0 mm | - | - | - |
| 1777718770 | 4.44° C | 76% | 1017.5 hPa | 0 mm | - | - | - |
| 1777718169 | 4.44° C | 77% | 1017.5 hPa | 0 mm | - | - | - |
| 1777717568 | 5° C | 77% | 1017.6 hPa | 0 mm | - | - | - |
| 1777717267 | 5° C | 77% | 1017.6 hPa | 0 mm | - | - | - |
| 1777716967 | 5° C | 78% | 1017.5 hPa | 0 mm | - | - | - |
* Rain latest hour (hover to see other rain measurements)
** Current wind speed in m/s (hover to see current wind gust speed)